Total_Precipitation_Accumulation
2.59 2.54 2.45 2.38 2.20 2.27 2.62 2.88 2.76 2.76 2.66 2.48 2.23 2.04 1.89 1.78 1.70 1.81 1.99 2.16 2.17 2.20 2.37 2.49 2.31 2.08 1.98 1.85 1.67 1.48 1.39 1.36 1.24 1.02 0.91 0.81 0.71 0.71 0.74 0.79 0.77 0.67 0.64
2.97 3.10 2.96 2.79 2.45 2.35 2.41 2.70 2.79 3.00 2.92 2.71 2.11 1.98 1.97 1.97 1.99 1.93 2.10 2.60 2.60 2.23 2.21 2.45 2.61 2.58 2.42 2.22 2.02 1.81 1.67 1.57 1.34 1.09 1.01 0.94 0.83 0.75 0.82 0.90 0.89 0.72 0.59
3.15 3.12 2.94 2.60 2.34 2.33 2.49 2.49 2.52 2.79 2.60 2.46 2.30 2.36 2.34 2.24 2.08 2.04 2.14 2.58 2.59 2.25 2.12 2.15 2.42 2.64 2.75 2.81 2.70 2.58 2.31 1.96 1.61 1.29 1.09 0.96 0.85 0.74 0.74 0.87 0.94 0.83 0.67
2.71 2.80 2.50 2.17 2.23 2.38 2.51 2.67 2.55 2.61 2.63 2.71 2.75 2.72 2.59 2.43 2.02 1.87 1.80 1.90 2.14 1.89 2.02 2.23 2.29 2.35 2.73 3.15 3.31 3.50 3.18 2.51 1.96 1.54 1.28 1.07 0.91 0.77 0.70 0.74 0.84 0.83 0.69
2.08 2.26 2.17 2.12 2.14 2.34 2.38 2.22 2.53 2.74 2.72 2.73 2.58 2.63 2.28 2.14 1.92 1.65 1.60 1.56 1.70 1.84 1.87 1.97 2.07 2.12 2.54 3.23 3.80 4.19 4.06 3.39 2.67 2.17 1.84 1.48 1.24 0.98 0.82 0.77 0.78 0.77 0.69
1.90 2.14 2.12 2.05 2.08 2.25 2.36 2.48 2.75 2.86 2.55 2.49 2.29 2.18 1.89 1.56 1.52 1.48 1.34 1.40 1.51 1.50 1.64 1.84 2.09 1.89 2.33 2.89 3.51 4.12 4.54 4.29 3.50 2.89 2.59 2.29 1.99 1.57 1.15 0.92 0.81 0.78 0.73
2.01 2.25 2.10 2.17 2.04 2.10 2.12 2.23 2.47 2.57 2.22 2.34 2.77 2.35 1.75 1.42 1.42 1.30 1.28 1.37 1.42 1.46 1.65 1.93 2.10 2.17 2.25 2.30 2.57 3.24 4.15 4.58 4.29 3.63 3.23 2.94 2.65 2.16 1.59 1.26 1.05 0.89 0.83
1.95 1.97 2.13 2.01 1.97 2.08 2.07 2.13 2.33 2.33 2.05 2.26 2.72 2.81 2.26 1.89 1.60 1.25 1.23 1.30 1.43 1.64 1.71 1.74 2.12 2.42 2.42 2.76 2.41 2.44 3.17 3.99 4.40 4.19 3.77 3.20 2.82 2.42 2.02 1.75 1.44 1.20 1.04
1.72 1.75 1.77 1.84 1.96 1.76 1.89 2.06 2.21 2.32 2.19 2.12 2.40 2.81 2.58 2.21 1.88 1.52 1.39 1.50 1.65 1.82 1.89 2.04 2.14 2.34 2.49 2.94 2.84 2.64 2.65 2.94 3.75 4.43 4.41 3.72 2.92 2.41 2.24 2.19 2.05 1.68 1.40
1.56 1.58 1.60 1.75 1.84 1.78 1.99 1.73 1.85 2.14 2.35 2.16 2.18 2.23 2.25 2.44 2.42 2.02 1.66 1.55 1.68 1.83 1.91 1.93 2.00 2.26 2.46 2.77 3.09 2.83 2.54 2.36 2.69 3.56 4.21 4.16 3.48 2.73 2.39 2.47 2.80 2.62 2.09
1.54 1.38 1.49 1.64 1.75 1.80 1.88 1.82 1.92 1.91 1.99 2.04 2.12 2.10 2.21 2.41 2.28 2.20 2.01 1.81 1.74 1.60 1.66 1.78 1.94 2.18 2.31 2.55 2.91 2.64 2.52 2.26 2.17 2.46 3.04 3.52 3.62 3.31 3.01 2.99 3.44 3.76 3.53
1.59 1.42 1.46 1.66 1.73 1.77 1.79 1.84 1.85 1.79 1.87 1.97 2.02 2.04 2.20 2.23 2.17 2.26 2.13 1.94 1.84 1.59 1.58 1.64 1.84 1.99 2.05 2.15 2.01 2.01 2.01 2.11 2.04 1.93 2.02 2.31 2.74 3.05 3.14 3.38 3.88 4.40 4.69
1.49 1.49 1.46 1.72 1.81 1.79 1.77 1.86 1.83 1.82 1.93 2.00 2.02 2.06 2.12 2.09 2.10 2.28 2.32 2.05 1.91 1.72 1.80 1.76 1.75 1.90 1.88 2.06 2.01 1.85 1.74 1.84 1.76 1.65 1.57 1.64 1.91 2.30 2.64 2.97 3.42 3.93 4.40
1.44 1.64 1.75 1.77 1.74 1.78 1.79 2.01 1.87 1.89 1.97 2.00 1.92 2.23 2.19 2.06 2.26 2.47 2.63 2.66 2.34 2.11 2.12 1.93 1.76 1.76 1.77 1.82 1.88 1.90 1.77 1.64 1.47 1.39 1.38 1.42 1.50 1.74 2.01 2.29 2.59 2.83 3.07
1.47 1.65 1.80 1.88 1.80 1.78 1.87 2.08 2.03 2.07 2.17 2.08 2.08 2.31 2.26 2.16 2.22 2.29 2.57 2.85 2.88 2.61 2.48 2.27 2.03 1.92 1.84 1.82 1.94 1.78 1.76 1.79 1.55 1.40 1.40 1.39 1.41 1.49 1.53 1.56 1.67 1.77 1.92
1.61 1.68 1.64 1.68 1.68 1.66 1.78 2.09 2.09 2.13 2.30 2.24 2.21 2.25 2.27 2.18 2.25 2.25 2.38 2.72 3.00 3.02 2.73 2.16 2.07 1.98 1.90 1.71 1.84 1.67 1.69 1.84 1.62 1.45 1.34 1.25 1.23 1.24 1.27 1.34 1.45 1.50 1.57
1.69 1.64 1.58 1.62 1.60 1.51 1.58 1.77 1.88 2.07 2.20 2.26 2.24 2.28 2.28 2.39 2.43 2.33 2.43 2.56 2.77 2.94 2.62 2.14 2.20 2.34 2.30 2.09 1.91 1.74 1.62 1.59 1.58 1.55 1.27 1.19 1.19 1.15 1.20 1.29 1.35 1.39 1.46
1.74 1.71 1.66 1.63 1.52 1.50 1.58 1.69 1.83 2.00 2.14 2.25 2.36 2.44 2.24 2.32 2.44 2.38 2.39 2.42 2.53 2.80 2.71 2.56 2.52 2.59 2.51 2.25 2.03 1.77 1.48 1.35 1.41 1.62 1.35 1.19 1.14 1.16 1.20 1.22 1.18 1.17 1.18
1.70 1.75 1.77 1.69 1.64 1.67 1.74 1.79 1.85 1.99 2.11 2.18 2.29 2.28 2.22 2.35 2.27 2.31 2.38 2.37 2.37 2.44 2.56 2.52 2.41 2.49 2.43 2.23 2.04 1.79 1.55 1.52 1.38 1.41 1.33 1.21 1.15 1.13 1.15 1.11 1.06 1.04 1.05
1.55 1.59 1.60 1.68 1.72 1.76 1.80 1.79 1.78 1.81 1.88 1.95 1.94 1.85 1.79 1.85 1.94 2.10 2.11 2.12 2.20 2.27 2.36 2.31 2.28 2.37 2.39 2.42 2.26 1.97 1.81 1.64 1.47 1.26 1.25 1.23 1.22 1.18 1.13 1.06 0.98 0.96 1.00
1.45 1.62 1.65 1.72 1.78 1.75 1.66 1.70 1.69 1.60 1.77 1.74 1.61 1.56 1.57 1.66 1.69 1.77 1.71 1.80 1.98 2.05 2.12 2.21 2.28 2.44 2.47 2.59 2.45 2.17 2.03 1.88 1.60 1.36 1.30 1.22 1.20 1.15 1.14 1.14 1.08 0.99 0.94
1.52 1.61 1.66 1.77 1.81 1.67 1.70 1.72 1.72 1.69 1.74 1.70 1.64 1.57 1.45 1.45 1.44 1.48 1.51 1.57 1.71 1.84 2.01 2.18 2.25 2.34 2.41 2.38 2.34 2.21 2.10 1.93 1.65 1.47 1.58 1.55 1.36 1.33 1.45 1.40 1.30 1.05 0.90
1.59 1.66 1.79 1.85 1.81 1.85 1.75 1.60 1.62 1.60 1.65 1.69 1.71 1.69 1.42 1.25 1.35 1.34 1.46 1.44 1.41 1.47 1.58 1.75 1.87 2.00 2.20 2.28 2.37 2.29 2.28 2.15 1.88 1.62 1.56 1.44 1.36 1.41 1.59 1.73 1.48 1.06 0.95
1.76 1.87 1.89 1.78 1.72 1.76 1.69 1.43 1.35 1.27 1.39 1.50 1.58 1.64 1.62 1.52 1.48 1.49 1.55 1.55 1.48 1.45 1.54 1.54 1.60 1.81 2.14 2.40 2.44 2.40 2.42 2.30 2.01 1.68 1.57 1.47 1.33 1.31 1.20 1.21 1.28 1.03 0.88
1.98 2.03 2.06 2.00 1.87 1.84 1.67 1.36 1.23 1.17 1.31 1.39 1.45 1.45 1.44 1.35 1.36 1.29 1.32 1.39 1.41 1.37 1.35 1.36 1.39 1.52 1.79 2.15 2.33 2.36 2.44 2.34 2.12 1.81 1.60 1.56 1.35 1.27 1.17 1.05 1.07 1.13 0.97
2.16 2.19 2.07 1.94 1.85 1.83 1.77 1.46 1.28 1.20 1.33 1.41 1.50 1.48 1.45 1.38 1.35 1.21 1.16 1.24 1.23 1.23 1.28 1.29 1.28 1.27 1.38 1.67 1.99 1.98 2.05 2.17 1.97 1.74 1.40 1.32 1.26 1.19 1.18 1.03 0.92 0.94 0.95